Location: Unspecified
(42.2600°N, 0.0000°E)
Time: 16:40:58
(UTC+00:00)

ISS - Pass Details

Date: 26 May 2019
Orbit: 407 x 418 km, 51.6° (Epoch: 20 June)

Event Time Altitude Azimuth Distance (km) Brightness Sun altitude
Rises 20:30:50 0° 292° (WNW) 2,351 1.6 -10.7°
Reaches altitude 10° 20:33:29 10° 315° (NW) 1,492 0.6 -11.1°
Maximum altitude 20:35:43 16° 357° (N) 1,163 -0.9 -11.4°
Drops below altitude 10° 20:37:57 10° 39° (NE) 1,497 -0.9 -11.7°
Sets 20:40:37 0° 61° (ENE) 2,364 -0.1 -12.0°
